Annapolis Naval Academy, MD

11:42 AM EST on December 09, 2019 (GMT -0500)
Annapolis Naval Academy

Weather History for KNAK - November, 2019

Change the Weather History Date:

Tuesday, November 19, 2019

  Actual Average (KBWI) Record (KBWI)
Temperature  
Mean Temperature 47 °F -  
Max Temperature 52 °F 55 °F 77 °F (1928)
Min Temperature 42 °F 34 °F 19 °F (2014)
Degree Days  
Heating Degree Days 18    
Moisture  
Dew Point 42 °F    
Average Humidity 88    
Maximum Humidity 97    
Minimum Humidity 61    
Precipitation  
Precipitation 0.03 in - - ()
Sea Level Pressure  
Sea Level Pressure 29.81 in    
Wind  
Wind Speed 2 mph ()    
Max Wind Speed 12 mph    
Max Gust Speed 18 mph    
Visibility 5.8 miles    
Events Rain    
Averages and records for this station are not official NWS values.
T = Trace of Precipitation, MM = Missing Value Source: Averaged Metar Reports

Daily Weather History Graph

Daily Weather History Graph

Search for Another Location

Airport or City:

Astronomy

Nov. 19, 2019 Rise Set
Actual Time 6:52 AM EST 4:49 PM EST
Civil Twilight 6:24 AM EST 5:18 PM EST
Nautical Twilight 5:51 AM EST 5:50 PM EST
Astronomical Twilight 5:19 AM EST 6:22 PM EST
Moon 11:41 PM EST (11/19) 1:02 PM EST (11/19)
Length of Visible Light 10h 53m
Length of Day
9h 56m
Waning Gibbous, 52% of the Moon is Illuminated
Nov 19
Waning Gibbous
Nov 19
Last Quarter
Nov 26
New
Dec 4
First Quarter
Dec 12
Full

Hourly Weather History & Observations

Time (EST) Temp. Windchill Dew Point Humidity Pressure Visibility Wind Dir Wind Speed Gust Speed Precip Events Conditions
12:05 AM 42.1 °F - 39.9 °F 92% 29.76 in 2.5 mi Calm Calm - 0.01 in Rain Rain
12:27 AM 43.0 °F 41.3 °F 41.0 °F 93% 29.76 in 3.0 mi WNW 3.5 mph - 0.03 in Rain Light Rain
12:54 AM 43.0 °F - 41.0 °F 93% 29.77 in 3.0 mi Calm Calm - 0.03 in Rain Light Rain
1:07 AM 43.0 °F 41.3 °F 41.0 °F 93% 29.76 in 4.0 mi NW 3.5 mph - 0.00 in Rain Light Rain
1:54 AM 43.0 °F - 41.0 °F 93% 29.77 in 5.0 mi Calm Calm - 0.00 in   Overcast
2:31 AM 43.0 °F - 41.0 °F 93% 29.76 in 4.0 mi Calm Calm - N/A   Overcast
2:54 AM 43.0 °F 40.3 °F 41.0 °F 93% 29.76 in 4.0 mi South 4.6 mph - N/A   Overcast
3:20 AM 44.1 °F 40.8 °F 42.1 °F 93% 29.76 in 4.0 mi NW 5.8 mph - N/A   Overcast
3:29 AM 44.1 °F 41.5 °F 42.1 °F 93% 29.76 in 4.0 mi NW 4.6 mph - N/A   Overcast
3:54 AM 43.0 °F 41.3 °F 42.1 °F 97% 29.77 in 4.0 mi West 3.5 mph - N/A   Overcast
4:54 AM 44.1 °F - 42.1 °F 93% 29.78 in 4.0 mi Calm Calm - N/A   Overcast
5:54 AM 44.1 °F 40.8 °F 42.1 °F 93% 29.79 in 4.0 mi WSW 5.8 mph 18.4 mph N/A   Overcast
6:54 AM 44.1 °F 42.5 °F 42.1 °F 93% 29.82 in 5.0 mi WSW 3.5 mph - N/A   Overcast
7:54 AM 44.1 °F 42.5 °F 42.1 °F 93% 29.83 in 4.0 mi Variable 3.5 mph - N/A   Overcast
8:54 AM 45.0 °F 42.6 °F 41.0 °F 86% 29.86 in 5.0 mi West 4.6 mph - N/A   Mostly Cloudy
9:54 AM 46.9 °F - 41.0 °F 80% 29.85 in 6.0 mi Calm Calm - N/A   Haze
10:54 AM 48.9 °F - 41.0 °F 74% 29.84 in 8.0 mi North 5.8 mph - N/A   Clear
11:54 AM 52.0 °F - 39.0 °F 61% 29.83 in 10.0 mi North 3.5 mph - N/A   Clear
12:54 PM 48.9 °F - 44.1 °F 83% 29.81 in 7.0 mi ESE 8.1 mph - N/A   Clear
1:54 PM 51.1 °F - 43.0 °F 74% 29.81 in 9.0 mi SE 8.1 mph - N/A   Scattered Clouds
2:54 PM 50.0 °F - 44.1 °F 80% 29.81 in 7.0 mi ESE 11.5 mph - N/A   Clear
3:54 PM 50.0 °F - 44.1 °F 80% 29.82 in 8.0 mi SSE 5.8 mph - N/A   Partly Cloudy
4:54 PM 48.9 °F - 44.1 °F 83% 29.83 in 8.0 mi SSE 3.5 mph - N/A   Clear
5:54 PM 48.9 °F - 45.0 °F 86% 29.85 in 9.0 mi SE 4.6 mph - N/A   Clear
6:54 PM 46.9 °F - 44.1 °F 90% 29.86 in 7.0 mi Calm Calm - N/A   Clear
7:54 PM 46.9 °F - 44.1 °F 90% 29.87 in 6.0 mi Calm Calm - N/A   Clear
8:54 PM 46.9 °F - 45.0 °F 93% 29.88 in 6.0 mi Calm Calm - N/A   Scattered Clouds
9:54 PM 46.0 °F - 43.0 °F 89% 29.88 in 7.0 mi Calm Calm - N/A   Scattered Clouds
10:54 PM 46.0 °F - 43.0 °F 89% 29.87 in 7.0 mi Calm Calm - N/A   Overcast
11:54 PM 46.9 °F - 43.0 °F 86% 29.87 in 8.0 mi Calm Calm - N/A   Overcast